Погода в Аксаково

Россия / Республика Башкортостан     54°01′17″N   54°08′55″E
темп.,
°C
ветер,
м/с
пор.,
м/с
влажн.,
%
обл.,
%
осадки,
мм/ч
давл.,
гПа
погр.,
м
26 февраля, пт
пт2623:00−23ю5996100 0.0 1028253
02:00−22ю51097100 0.3 1026320
05:00−23ююв51098100 0.4 1025315
08:00−24ююв5998100 0.0 1024249
11:00−22юв5997100 0.1 1023305
14:00−19ююв699599 0.0 1022370
17:00−18ююв6994100 0.1 1021416
20:00−21ююв5129891 0.0 1019263
27 февраля, сб
сб2723:00−19ююв6159792 0.0 1018359
02:00−16ююв81695100 0.1 1013470
05:00−14ююв101794100 0.8 1009524
08:00−13ююв91694100 3.3 1005545
11:00−12ююв71293100 4.3 1004426
14:00−9ююв61094100 0.6 1002366
17:00−7ююв5895100 0.9 1002286
20:00−6ююв369796 0.4 1001151
28 февраля, вс
вс2823:00−4ююз359897 0.8 1001119
02:00−4ююз379898 0.3 1000169
05:00−4ююз369798 0.7 1001174
08:00−4ююз359899 0.5 1000117
11:00−2юз3597100 0.9 1001276
14:00−1юз349797 0.3 1002347
17:00−1зюз239798 0.6 1003230
20:00−7ссв469699 0.5 1004130
1 марта, пн
пн123:00−11с469689 0.6 1007129
02:00−14с359783 0.1 1009113
05:00−15ссз369687 0.2 1011142
08:00−18ссз349886 0.1 101368
11:00−15ссз349691 0.1 1015170
14:00−13ссз349389 0.1 1017243
17:00−14с349593 0.1 1018233
20:00−19ссз339995 0.0 101927
2 марта, вт
вт223:00−21ссз2210093 0.1 102120
02:00−21сз2210071 0.0 102120
05:00−22зсз2210048 0.0 102120
08:00−23зюз2210019 0.0 102120
11:00−19юз369625 0.0 1019160
14:00−16юз589463 0.0 1017254
17:00−15ююз7119381 0.0 1015313
20:00−15ююз71395100 0.2 1013399